Tracking 34794 objects as of 19-Jul-2026
HD Live streaming from Space Station
objects crossing your sky now

STARLINK-32573

Track STARLINK-32573 now!
10-day predictions
STARLINK-32573 is classified as:


NORAD ID: 61725
Int'l Code: 2024-196U
Perigee: 469.0 km
Apogee: 470.7 km
Inclination: 53.2 °
Period: 93.8 minutes
Semi major axis: 6840 km
RCS: Unknown
Launch date: October 30, 2024
Source: United States (US)
Launch site: AIR FORCE EASTERN TEST RANGE (AFETR)
Your satellite tracking list
Your tracking list is empty




NASA's NSSDC Master Catalog

Two Line Element Set (TLE):
1 61725U 24196U   26199.76205228  .00000198  00000-0  17001-4 0  9993
2 61725  53.1599 211.8617 0001259  86.8423 273.2723 15.34388257 97232
Source of the keplerian elements: AFSPC